Location: Newark
(43.4306°N, 0.3089°E)
Time: 21:38:37
(UTC+00:00)

Transit 2A Rocket - All Passes

Search period start: 24 August 2019 00:00
Search period end: 03 September 2019 00:00
Orbit: 590 x 913 km, 66.7° (Epoch: 24 August)

Date Brightness Start Highest point End Pass type
(mag) Time Alt. Az. Time Alt. Az. Time Alt. Az.
24 Aug - 01:57:00 10° N 01:59:31 14° NE 02:01:56 10° ENE visible
24 Aug - 03:38:17 10° NNW 03:42:53 87° ENE 03:47:12 10° SSE visible
24 Aug - 18:12:34 10° SSW 18:18:14 54° ESE 18:23:27 10° NE daylight
24 Aug - 19:56:17 10° WSW 20:01:04 28° NW 20:05:34 10° NNE visible
25 Aug - 02:55:51 10° NNW 03:00:18 48° NE 03:04:30 10° SE visible
25 Aug - 04:39:23 10° WNW 04:42:23 18° WSW 04:45:18 10° SSW visible
25 Aug - 17:30:44 10° S 17:35:50 33° ESE 17:40:37 10° NE daylight
25 Aug - 19:12:57 10° WSW 19:18:21 42° NW 19:23:20 10° NNE visible
25 Aug - 21:02:09 10° NNW 21:02:16 10° NNW 21:02:23 10° NNW visible
26 Aug - 02:13:35 10° NNW 02:17:36 29° NE 02:21:24 10° ESE visible
26 Aug - 03:56:07 10° NW 04:00:09 33° WSW 04:04:00 10° S visible
26 Aug - 16:49:31 10° SSE 16:53:31 20° ESE 16:57:21 10° ENE daylight
26 Aug - 18:30:00 10° SW 18:35:43 68° WNW 18:41:00 10° NNE daylight
26 Aug - 20:16:13 10° WNW 20:19:11 15° NW 20:22:03 10° N visible
27 Aug - 01:31:32 10° N 01:34:46 18° NE 01:37:51 10° E visible
27 Aug - 03:13:19 10° NW 03:17:47 62° WSW 03:22:02 10° SSE visible
27 Aug - 16:09:53 10° ESE 16:11:19 11° ESE 16:12:44 10° E daylight
27 Aug - 17:47:25 10° SSW 17:53:11 76° ESE 17:58:30 10° NE daylight
27 Aug - 19:32:06 10° W 19:36:16 21° NW 19:40:13 10° N visible
28 Aug - 00:49:54 10° N 00:51:48 12° NE 00:53:38 10° ENE visible
28 Aug - 02:30:45 10° NNW 02:35:19 71° ENE 02:39:36 10° SE visible
28 Aug - 04:15:36 10° W 04:17:06 12° WSW 04:18:35 10° SW visible
28 Aug - 17:05:16 10° S 17:10:44 45° ESE 17:15:49 10° NE daylight
28 Aug - 18:48:28 10° WSW 18:53:28 32° NW 18:58:06 10° NNE daylight
29 Aug - 01:48:23 10° NNW 01:52:42 39° NE 01:56:46 10° ESE visible
29 Aug - 03:31:31 10° WNW 03:34:56 22° WSW 03:38:15 10° SSW visible
29 Aug - 16:23:37 10° SSE 16:28:22 27° ESE 16:32:52 10° NE daylight
29 Aug - 18:05:16 10° SW 18:10:47 49° NW 18:15:51 10° NNE daylight
29 Aug - 19:52:54 10° NW 19:54:31 11° NNW 19:56:06 10° NNW visible
30 Aug - 01:06:11 10° N 01:09:57 24° NE 01:13:31 10° E visible
30 Aug - 02:48:27 10° NW 02:52:39 40° WSW 02:56:40 10° S visible
30 Aug - 15:42:43 10° SE 15:46:06 16° ESE 15:49:21 10° ENE daylight
30 Aug - 17:22:26 10° SW 17:28:11 79° WNW 17:33:27 10° NNE daylight
30 Aug - 19:08:07 10° WNW 19:11:30 16° NW 19:14:45 10° N visible
31 Aug - 00:24:15 10° N 00:27:04 16° NE 00:29:46 10° ENE visible
31 Aug - 02:05:44 10° NW 02:10:15 78° WSW 02:14:32 10° SSE visible
31 Aug - 16:40:01 10° SSW 16:45:41 64° ESE 16:50:54 10° NE daylight
31 Aug - 18:24:11 10° W 18:28:37 24° NW 18:32:48 10° N daylight
31 Aug - 23:43:08 10° NNE 23:44:03 10° NNE 23:44:57 10° NE visible
01 Sep - 01:23:15 10° NNW 01:27:43 57° NE 01:31:58 10° SE visible
01 Sep - 03:07:16 10° WNW 03:09:41 14° WSW 03:12:02 10° SW night (unlit)
01 Sep - 15:58:01 10° S 16:03:15 38° ESE 16:08:08 10° NE daylight
01 Sep - 17:40:42 10° WSW 17:45:51 36° NW 17:50:38 10° NNE daylight
02 Sep - 00:40:56 10° NNW 00:45:04 33° NE 00:48:59 10° ESE visible
02 Sep - 02:23:44 10° NW 02:27:27 27° WSW 02:31:04 10° SSW visible
02 Sep - 15:16:34 10° SSE 15:20:55 23° ESE 15:25:02 10° ENE daylight
02 Sep - 16:57:37 10° SW 17:03:12 58° NW 17:08:20 10° NNE daylight
02 Sep - 18:44:30 10° WNW 18:46:48 13° NW 18:49:01 10° N daylight
